Tracking 25648 objects as of 17-May-2022
HD Live streaming from Space Station
objects crossing your sky now

COSMOS 2251 DEB

Track COSMOS 2251 DEB now!
10-day predictions


NORAD ID: 47066
Int'l Code: 1993-036BXU
Perigee: 632.8 km
Apogee: 774.9 km
Inclination: 74.0 °
Period: 98.7 minutes
Semi major axis: 7074 km
RCS: Unknown
Launch date: June 16, 1993
Source: Commonwealth of Independent States (former USSR) (CIS)
Launch site: PLESETSK MISSILE AND SPACE COMPLEX (PKMTR)

Note: This is SATELLITE DEBRIS
aabbcc
Your satellite tracking list
Your tracking list is empty




NASA's NSSDC Master Catalog

Two Line Element Set (TLE):
1 47066U 93036BXW 22112.35189276  .00012192  00000-0  24276-2 0  9991
2 47066  74.0048 115.3904 0100441 188.9860 170.9513 14.58904389409674
Source of the keplerian elements: AFSPC